Location: Newark
(42.8481°N, 0.4872°E)
Time: 17:49:55
(UTC+00:00)

Vanguard 1 - Pass Details

Date: 29 October 2020
Orbit: 650 x 3833 km, 34.2° (Epoch: 23 November)

Event Time Altitude Azimuth Distance (km) Brightness Sun altitude
Rises 16:43:51 0° 275° (W) 7,977 16.1 0.9°
Reaches altitude 10° 16:49:38 10° 272° (W) 6,871 15.8 -0.1°
Maximum altitude 17:10:27 54° 204° (SSW) 3,344 13.1 -3.7°
Drops below altitude 10° 17:23:16 10° 131° (SE) 4,428 13.1 -6.0°
Sets 17:26:07 0° 127° (SE) 5,084 13.3 -6.5°
